Regional Weather Roundup
Issued by NWS San Angelo, TX

Home | Current Version | Previous Version | Text Only | Print | Product List | Glossary On
Versions: 1 2 3 4 5 6 7 8 9 10 11 12 13 14 15 16 17 18 19 20 21 22 23 24 25 26 27 28 29 30 31 32 33 34 35 36 37 38 39 40 41 42 43 44 45 46 47 48 49 50
000
ASUS44 KSJT 280410
RWRSJT
WEST CENTRAL TEXAS REGIONAL WEATHER ROUNDUP
NATIONAL WEATHER SERVICE SAN ANGELO TX
1100 PM CDT SUN JUL 27 2014

NOTE: "FAIR" INDICATES FEW OR NO CLOUDS BELOW 12,000 FEET WITH NO
SIGNIFICANT WEATHER AND/OR OBSTRUCTIONS TO VISIBILITY.

TXZ049-054-064>066-071>073-076>078-098-099-113-114-127-128-139-140-
154-155-168>170-280500
...LOCATIONS ACROSS WEST CENTRAL TEXAS...

CITY           SKY/WX    TMP DP  RH WIND       PRES   REMARKS
SAN ANGELO     CLEAR     88  56  33 SE8       30.05R
ABILENE        CLEAR     87  61  41 SE9       30.06R
DYESS AFB      CLEAR     85  64  49 S8        30.05R
JUNCTION       CLEAR     86  62  44 SE7       30.07R
SWEETWATER     CLEAR     87  58  37 SE7       30.12R
BROWNWOOD      PTCLDY    86  63  45 SE9       30.05R
COLEMAN        CLEAR     85  61  43 SE7       30.07R
SONORA         CLEAR     88  57  35 S6        30.13R
OZONA          FAIR      86  55  35 SE9       30.12R
BRADY          CLEAR     84  61  45 SE6       30.08R
$$

TEXAS PANHANDLE/OKLAHOMA PANHANDLE

CITY           SKY/WX    TMP DP  RH WIND       PRES   REMARKS
AMARILLO       PTCLDY    78  56  46 E21       30.25R
BORGER         PTCLDY    79  49  34 E14       30.23R
CANADIAN       CLEAR     76  55  48 E5        30.20R
DALHART        CLOUDY    76  54  46 NE17G24   30.28R
DUMAS          CLOUDY    74  52  46 E15       30.27R
GUYMON         NOT AVBL
HEREFORD       TSTM      71  67  89 CALM      30.28S
PAMPA          CLEAR     73  51  45 E12       30.25R
PERRYTON       PTCLDY    73  58  58 NE6       30.24S
$$

SOUTHERN PANHANDLE/SOUTH PLAINS/ROLLING PLAINS

CITY           SKY/WX    TMP DP  RH WIND       PRES   REMARKS
LUBBOCK        PTCLDY    82  55  39 E6        30.15R
SNYDER         CLEAR     87  57  35 SE7       30.10R
CHILDRESS      CLEAR     86  65  49 NE18G26   30.11R
SEMINOLE       CLEAR     86  52  31 SE7       30.14R
$$

PERMIAN BASIN

CITY           SKY/WX    TMP DP  RH WIND       PRES   REMARKS
MIDLAND        PTCLDY    90  59  35 SE12      30.09R
ODESSA         PTCLDY    90  57  32 SE12      30.10R
WINK           MOCLDY    92  60  34 S17G28    30.06R
$$

FAR WEST/SOUTHWEST MOUNTAINS/TRANS PECOS

CITY           SKY/WX    TMP DP  RH WIND       PRES   REMARKS
ALPINE         MOCLDY    82  57  42 S13G18    30.24R
DRYDEN           N/A     91  55  29 E9        30.04R
EL PASO        CLOUDY    89  52  28 W13       30.11R
FORT STOCKTON  PTCLDY    86  58  38 SE13      30.10R
GUADALUPE PASS MOCLDY    82  53  36 E16         N/A
MARFA          PTCLDY    79  55  44 E8        30.24R
PECOS          MOCLDY    89  58  34 SE17      30.05R
$$

DALLAS/FORT WORTH METROPLEX

CITY           SKY/WX    TMP DP  RH WIND       PRES   REMARKS
DFW AIRPORT    CLEAR     92  66  42 S12       30.00R
FTW MEACHAM    CLEAR     92  65  40 S10       30.00R
DAL-EXECUTIVE  CLEAR     90  68  48 S7        30.01R
GRAND PRAIRIE  CLEAR     90  64  41 SE8       30.02R
ADDISON        CLEAR     91  64  41 S10       30.03R
MESQUITE       CLEAR     84  70  61 S7        30.01S
LANCASTER      CLEAR     85  68  55 S6        30.02R
$$

NORTH CENTRAL TEXAS

CITY           SKY/WX    TMP DP  RH WIND       PRES   REMARKS
SHRMAN/DENISON CLOUDY    87  69  54 E5        30.03R
GAINESVILLE    MOCLDY    87  69  55 E3        30.04R
BRIDGEPORT     CLEAR     85  61  44 S5        30.03R
DENTON         CLEAR     87  67  51 S7        30.00R
WAXAHACHIE     CLEAR     85  66  52 S8        30.03S
GRANBURY       CLEAR     90  64  42 SE9       30.03R
$$

WESTERN NORTH TEXAS

CITY           SKY/WX    TMP DP  RH WIND       PRES   REMARKS
WICHITA FALLS  PTCLDY    89  72  56 NE13      30.03R
VERNON         CLEAR     90  70  51 E16G23    30.06R
BRECKENRIDGE   CLEAR     91  59  34 SE7       30.03R
COMANCHE       CLEAR     85  62  45 S8        30.05R
$$

CENTRAL AND SOUTH CENTRAL TEXAS

CITY           SKY/WX    TMP DP  RH WIND       PRES   REMARKS
AUSTIN/BERGSTM CLEAR     85  68  56 S9        30.04R
WACO           CLEAR     88  67  49 SE12      30.02R
HILLSBORO      CLEAR     86  66  52 SE6       30.03R
TEMPLE         CLEAR     88  66  48 SE15      30.04R
KILLEEN-GRAY   CLEAR     86  66  51 SE12      30.04R
FORT HOOD      CLEAR     88  68  51 SE7       30.04R
GEORGETOWN     CLEAR     86  70  58 SE5       30.04R
LAGO VISTA     FAIR      87  67  52 S8        30.08R
SAN MARCOS     CLEAR     84  66  54 S14       30.07R
NEW BRAUNFELS  CLEAR     84  68  58 S13       30.04R
RANDOLPH AFB   CLEAR     84  66  54 S14       30.06R
SAN ANTONIO    CLEAR     86  68  54 SE17      30.05R
STINSON        CLEAR     84  69  60 SE15      30.03R
PLEASANTON     NOT AVBL
LA GRANGE      CLEAR     84  77  79 S7        30.04R
GIDDINGS       CLEAR     84  72  68 S5        30.09R
$$

EAST TEXAS

CITY           SKY/WX    TMP DP  RH WIND       PRES   REMARKS
PARIS          PTCLDY    82  72  69 SE6       30.03R
CLARKSVILLE    PTCLDY    84  76  78 CALM      30.02R
TYLER          CLEAR     82  74  76 S3        30.03R
LONGVIEW       CLEAR     81  73  76 S6        30.01F
PALESTINE      NOT AVBL
NACOGDOCHES    CLEAR     75  73  94 CALM      30.05R
$$

TEXAS HILL COUNTRY AND EDWARDS PLATEAU

CITY           SKY/WX    TMP DP  RH WIND       PRES   REMARKS
LLANO          CLEAR     84  64  51 CALM      30.07R
HORSESHOE BAY  FAIR      87  63  44 S8        30.06R
KERRVILLE      CLEAR     84  70  61 SE13G18   30.09R
FREDERICKSBRG  CLEAR     84  64  51 SE5       30.09R
ROCKSPRINGS    CLEAR     81  63  54 CALM      30.12R
HONDO          CLEAR     86  71  60 SE21      30.05R
UVALDE         CLEAR     89  73  57 SE16      30.02R
DEL RIO        CLEAR     92  63  38 E10       29.97R
$$

SOUTHEAST TEXAS

CITY           SKY/WX    TMP DP  RH WIND       PRES   REMARKS
COLLEGE STN    CLEAR     85  72  65 S6        30.04R
CALDWELL       CLEAR     84  73  70 S10       30.08R
CROCKETT       CLEAR     84  79  84 S5        30.07R
BRENHAM        CLEAR     83  72  67 S12       30.05S
HUNTSVILLE     CLEAR     83  76  79 S6        30.05R
CONROE         PTCLDY    84  74  71 S8        30.06R
HOUSTON BUSH   PTCLDY    84  75  74 S7        30.06R
HOUSTON HOBBY  CLEAR     82  76  81 S8        30.06R
PERLAND        CLEAR     82  76  81 S6        30.07S
WHARTON        CLEAR     80  76  89 S5        30.07S
$$

THE UPPER TEXAS COAST

CITY           SKY/WX    TMP DP  RH WIND       PRES   REMARKS
ORANGE         CLEAR     81  76  84 SW3       30.08R
PORT ARTHUR    CLEAR     80  77  90 SW5       30.06R
GALVESTON      CLEAR     84  77  79 SW10      30.08R
ANGLETON       CLEAR     79  77  94 S3        30.07R
BAY CITY       CLEAR     81  81 100 CALM      30.07R
$$

TEXAS COASTAL BEND, RIO GRANDE PLAINS DEEP SOUTH TEXAS

CITY           SKY/WX    TMP DP  RH WIND       PRES   REMARKS
VICTORIA       CLEAR     80  75  84 S7        30.07R
BEEVILLE       FAIR      79  71  76 SE6       30.05R
ROCKPORT       CLEAR     83  76  79 S12       30.05R
PORT ARANSAS   CLEAR     80  77  91 SE6       30.05R
PORT LAVACA    CLEAR     77  74  92 SE5       30.06R
CORPUS CHRISTI CLEAR     81  75  82 SE10      30.04R
KINGSVILLE NAS CLEAR     82  76  81 SE16      30.04R
COTULLA        CLEAR     88  71  57 SE14      30.00R
LAREDO         CLEAR     90  65  43 SE21G26   30.01R
BROWNSVILLE    CLEAR     82  77  84 SE12      30.04R
PORT ISABEL    CLEAR     83  76  79 SE14      30.04R
HEBBRONVILLE   CLEAR     84  64  50 SE9       30.04R
MCALLEN        CLEAR     83  75  77 SE17      30.03R
WESLACO        CLEAR     82  74  74 SE13      30.03R
FALFURRIAS     CLEAR     78  71  78 SE9       30.03R
EDINBURG       CLEAR     84  73  68 SE9       30.03R
$$


USA.gov is the U.S. government's official web portal to all federal, state and local government web resources and services.